Weather History for KNGP - October, 2012

Change the Weather History Date:

Saturday, October 20, 2012

  Actual Average Record
Temperature  
Mean Temperature 81 °F -  
Max Temperature 88 °F 80 °F 89 °F (2004)
Min Temperature 75 °F 66 °F 46 °F (1999)
Cooling Degree Days 16    
Growing Degree Days 31 (Base 50)    
Moisture  
Dew Point 75 °F    
Average Humidity 82    
Maximum Humidity 94    
Minimum Humidity 67    
Precipitation  
Precipitation 0.00 in - - ()
Sea Level Pressure  
Sea Level Pressure 29.87 in    
Wind  
Wind Speed 12 mph (SSE)    
Max Wind Speed 23 mph    
Max Gust Speed 26 mph    
Visibility 10 miles    
Events      
Averages and records for this station are not official NWS values.
T = Trace of Precipitation, MM = Missing Value Source: NWS Daily Summary

Daily Weather History Graph

Daily Weather History Graph

Search for Another Location

Airport or City:

Trip Planner

Search our weather history database for the weather conditions in past years. The results will help you decide how hot, cold, wet, or windy it might be!

Date:

Astronomy

Oct. 20, 2012 Rise Set
Actual Time 7:32 AM CDT 6:54 PM CDT
Civil Twilight 7:08 AM CDT 7:18 PM CDT
Nautical Twilight 6:41 AM CDT 7:45 PM CDT
Astronomical Twilight 6:14 AM CDT 8:12 PM CDT
Moon 12:54 PM CDT (10/20) 11:55 PM CDT (10/20)
Length of Visible Light 12h 09m
Length of Day
11h 22m
Waxing Crescent, 34% of the Moon is Illuminated
Oct 20
Waxing Crescent
Oct 21
First Quarter
Oct 29
Full
Nov 6
Last Quarter
Nov 13
New

Hourly Weather History & Observations

Time (CDT) Temp. Heat Index Dew Point Humidity Pressure Visibility Wind Dir Wind Speed Gust Speed Precip Events Conditions
12:56 AM 75.9 °F - 66.9 °F 74% 29.91 in 10.0 mi SE 9.2 mph - N/A   Clear
1:56 AM 75.9 °F - 69.1 °F 79% 29.90 in 10.0 mi SSE 10.4 mph - N/A   Clear
2:56 AM 75.9 °F - 71.1 °F 85% 29.90 in 10.0 mi SSE 8.1 mph - N/A   Clear
3:56 AM 77.0 °F - 73.0 °F 88% 29.88 in 10.0 mi SSE 9.2 mph - N/A   Clear
4:56 AM 75.9 °F - 73.0 °F 91% 29.88 in 10.0 mi SSE 6.9 mph - N/A   Clear
5:56 AM 75.9 °F - 73.9 °F 94% 29.88 in 10.0 mi SE 6.9 mph - N/A   Clear
6:56 AM 77.0 °F - 75.0 °F 94% 29.88 in 10.0 mi SSE 8.1 mph - N/A   Clear
7:56 AM 77.0 °F - 75.0 °F 94% 29.89 in 10.0 mi SSE 6.9 mph - N/A   Partly Cloudy
8:56 AM 80.1 °F 85.4 °F 75.9 °F 87% 29.91 in 10.0 mi SSE 8.1 mph - N/A   Clear
9:56 AM 82.0 °F 88.6 °F 75.0 °F 79% 29.93 in 10.0 mi SSE 12.7 mph - N/A   Clear
10:56 AM 84.9 °F 94.1 °F 75.9 °F 74% 29.92 in 10.0 mi SSE 15.0 mph - N/A   Partly Cloudy
11:56 AM 86.0 °F 95.1 °F 75.0 °F 70% 29.91 in 10.0 mi SSE 15.0 mph - N/A   Clear
12:56 PM 87.1 °F 96.3 °F 75.0 °F 67% 29.89 in 10.0 mi South 16.1 mph - N/A   Partly Cloudy
1:56 PM 87.1 °F 96.3 °F 75.0 °F 67% 29.86 in 10.0 mi SSE 20.7 mph 25.3 mph N/A   Partly Cloudy
2:56 PM 86.0 °F 95.1 °F 75.0 °F 70% 29.84 in 10.0 mi SE 19.6 mph - N/A   Partly Cloudy
3:56 PM 86.0 °F 95.1 °F 75.0 °F 70% 29.82 in 10.0 mi SSE 17.3 mph 26.5 mph N/A   Clear
4:56 PM 84.0 °F 92.6 °F 75.9 °F 76% 29.82 in 10.0 mi SSE 23.0 mph 26.5 mph N/A   Partly Cloudy
5:56 PM 82.9 °F 90.2 °F 75.0 °F 77% 29.82 in 10.0 mi SSE 17.3 mph 24.2 mph N/A   Clear
6:56 PM 81.0 °F 87.3 °F 75.9 °F 85% 29.82 in 10.0 mi SSE 18.4 mph - N/A   Clear
7:56 PM 80.1 °F 85.4 °F 75.9 °F 87% 29.83 in 10.0 mi SSE 18.4 mph 23.0 mph N/A   Clear
8:56 PM 80.1 °F 85.8 °F 77.0 °F 90% 29.85 in 10.0 mi SSE 15.0 mph - N/A   Clear
9:56 PM 80.1 °F 85.8 °F 77.0 °F 90% 29.86 in 10.0 mi SSE 16.1 mph - N/A   Clear
10:56 PM 80.1 °F 85.8 °F 77.0 °F 90% 29.88 in 10.0 mi SSE 13.8 mph - N/A   Clear
11:56 PM 80.1 °F 85.4 °F 75.9 °F 87% 29.87 in 10.0 mi South 13.8 mph - N/A   Clear